This demonstration page uses our WeatherBlox Daily Observations layout. Learn more.

Left ArrowRight Arrow

39.01783, -85.05884

Hourly Observations for October 12, 2015

Temp ( °F °C ) Dew Point ( °F °C ) Humidity (%) Winds ( mph kmh ) Pressure ( in mb ) Visibility ( mi km ) Precip ( " mm )
12:52 am 00:52 Clear 53 11.7 45 7.2 74 74 S 3 6 29.85 1011 10 16 N/A
1:52 am 01:52 Clear 51 10.6 45 7.2 80 80 S 5 7 29.83 1010 10 16 N/A
2:52 am 02:52 Clear 52 11.1 45 7.2 77 77 SSW 6 9 29.84 1010 10 16 N/A
3:52 am 03:52 Clear 51 10.6 45 7.2 80 80 SSW 7 11 29.83 1010 10 16 N/A
4:52 am 04:52 Clear 52 11.1 45 7.2 77 77 S 9 15 29.80 1009 10 16 N/A
5:52 am 05:52 Clear 50 10 45 7.2 83 83 S 8 13 29.80 1009 10 16 N/A
6:52 am 06:52 Mostly Clear 50 10 45 7.2 83 83 S 9 15 29.79 1009 10 16 N/A
7:52 am 07:52 Mostly Sunny 53 11.7 46 7.8 77 77 S 10 17 29.79 1009 10 16 N/A
8:52 am 08:52 Mostly Cloudy 55 12.8 48 8.9 77 77 S 9 15 29.78 1009 10 16 N/A
9:52 am 09:52 Mostly Sunny 60 15.6 48 8.9 65 65 S 14 22 29.77 1008 10 16 N/A
10:52 am 10:52 Partly Cloudy 64 17.8 49 9.4 58 58 SSW 14 22 29.75 1008 10 16 N/A
11:52 am 11:52 Sunny 70 21.1 50 10 49 49 S 16 26 29.71 1006 10 16 N/A
12:52 pm 12:52 Sunny 75 23.9 52 11.1 45 45 SSW 14 22 29.68 1005 10 16 N/A
1:52 pm 13:52 Sunny 76 24.4 52 11.1 43 43 SSW 16 26 29.65 1004 10 16 N/A
2:52 pm 14:52 Mostly Sunny 77 25 53 11.7 43 43 SSW 14 22 29.62 1003 10 16 N/A
3:52 pm 15:52 Mostly Cloudy 77 25 54 12.2 45 45 SW 13 20 29.61 1003 10 16 N/A
4:52 pm 16:52 Partly Cloudy 77 25 55 12.8 47 47 SSW 16 26 29.59 1002 10 16 N/A
5:52 pm 17:52 Mostly Cloudy 75 23.9 55 12.8 50 50 SSW 13 20 29.57 1001 10 16 N/A
6:39 pm 18:39 Cloudy with Thunderstorms 75 24 55 13 50 50 WSW 7 11 29.53 1000 10 16 N/A
6:52 pm 18:52 Cloudy with Thunderstorms 70 21.1 60 15.6 71 71 WNW 16 26 29.60 1002 8 13 0.01 0.25
7:22 pm 19:22 Cloudy with Rain 64 18 63 17 94 94 W 9 15 29.62 1003 6 10 N/A
7:52 pm 19:52 Cloudy with Rain 64 17.8 63 17.2 96 96 N N/A 29.65 1004 5 8 0.31 7.87
8:52 pm 20:52 Mostly Cloudy with Light Rain 63 17.2 61 16.1 93 93 SSE 12 19 29.60 1002 9 14 0.06 1.52
9:52 pm 21:52 Partly Cloudy with Mist and Fog 63 17.2 61 16.1 93 93 WSW 5 7 29.62 1003 6 10 N/A
10:27 pm 22:27 Cloudy with Mist and Fog 63 17 63 17 100 100 SW 6 9 29.62 1003 5 8 N/A
10:52 pm 22:52 Cloudy with Mist and Fog 63 17.2 62 16.7 97 97 SSW 8 13 29.62 1003 5 8 N/A
11:52 pm 23:52 Mostly Cloudy with Mist and Fog 63 17.2 62 16.7 97 97 SW 9 15 29.61 1003 5 8 N/A

Powered by AerisWeather